DLH19L LICJ-EDDF

Flight info

Callsign DLH19L
Flight time 2h 0m
Altitude 34000
Route ROSAS DCT LAT DCT GIKEB DCT EKPEB DCT BRENO DCT KONIN DCT ERNAS T161 DEBHI DEBHI1D
Aircraft A321/M-SDE3FGHIJ1J5J6J7M1RWXY/LB1

Departure

Time 2026-04-14 11:39
Airport Falcone–Borsellino Airport (LICJ)

Arrival

Time 2026-04-14 13:39
Airport Frankfurt Main Airport (EDDF)
Time Latitude Longitude Altitude Speed Heading
2026-04-14 10:54 38.18385 13.10398 65 ft 0 kts 67°
2026-04-14 11:31 38.18385 13.10399 65 ft 1 kts 67°
2026-04-14 11:31 38.18393 13.10422 57 ft 4 kts 67°
2026-04-14 11:31 38.18405 13.10460 60 ft 5 kts 67°
2026-04-14 11:31 38.18394 13.10486 60 ft 3 kts 156°
2026-04-14 11:32 38.18369 13.10490 63 ft 4 kts 185°
2026-04-14 11:32 38.18339 13.10475 65 ft 7 kts 211°
2026-04-14 11:32 38.18306 13.10407 61 ft 11 kts 245°
2026-04-14 11:32 38.18251 13.10368 63 ft 10 kts 168°
2026-04-14 11:33 38.18201 13.10325 61 ft 10 kts 244°
2026-04-14 11:33 38.18171 13.10239 60 ft 13 kts 246°
2026-04-14 11:33 38.18126 13.10107 57 ft 19 kts 247°
2026-04-14 11:34 38.18022 13.09793 63 ft 20 kts 248°
2026-04-14 11:34 38.18004 13.09738 60 ft 20 kts 247°
2026-04-14 11:34 38.17982 13.09676 56 ft 20 kts 246°
2026-04-14 11:34 38.17927 13.09513 59 ft 20 kts 247°
2026-04-14 11:35 38.17900 13.09434 63 ft 20 kts 247°
2026-04-14 11:35 38.17871 13.09347 63 ft 18 kts 247°
2026-04-14 11:35 38.17824 13.09208 66 ft 17 kts 246°
2026-04-14 11:35 38.17772 13.09050 58 ft 21 kts 247°
2026-04-14 11:36 38.17690 13.08898 58 ft 21 kts 210°
2026-04-14 11:36 38.17574 13.08797 62 ft 20 kts 217°
2026-04-14 11:36 38.17511 13.08742 64 ft 9 kts 205°
2026-04-14 11:36 38.17470 13.08735 70 ft 4 kts 116°
2026-04-14 11:37 38.17473 13.08767 68 ft 4 kts 73°
2026-04-14 11:37 38.17477 13.08782 66 ft 0 kts 68°
2026-04-14 11:38 38.17574 13.09071 65 ft 70 kts 67°
2026-04-14 11:38 38.17851 13.09900 63 ft 131 kts 67°
2026-04-14 11:38 38.18270 13.11162 90 ft 176 kts 65°
2026-04-14 11:38 38.18757 13.12596 657 ft 177 kts 63°
2026-04-14 11:39 38.19276 13.14039 1340 ft 180 kts 63°
2026-04-14 11:39 38.19797 13.15474 2024 ft 176 kts 64°
2026-04-14 11:39 38.20316 13.16910 2434 ft 188 kts 66°
2026-04-14 11:39 38.20871 13.18472 2736 ft 204 kts 62°
2026-04-14 11:40 38.21818 13.19935 2856 ft 228 kts 38°
2026-04-14 11:40 38.23297 13.20965 2932 ft 256 kts 22°
2026-04-14 11:40 38.24989 13.21800 3516 ft 264 kts 21°
2026-04-14 11:40 38.26716 13.22676 4114 ft 270 kts 22°
2026-04-14 11:41 38.28483 13.23594 4684 ft 278 kts 22°
2026-04-14 11:41 38.30281 13.24543 5328 ft 282 kts 23°
2026-04-14 11:41 38.32107 13.25516 5964 ft 286 kts 24°
2026-04-14 11:41 38.33957 13.26506 6588 ft 290 kts 24°
2026-04-14 11:42 38.35828 13.27508 7212 ft 294 kts 24°
2026-04-14 11:42 38.37720 13.28523 7853 ft 296 kts 24°
2026-04-14 11:42 38.39605 13.29533 8465 ft 299 kts 24°
2026-04-14 11:42 38.41539 13.30568 9078 ft 303 kts 24°
2026-04-14 11:43 38.43497 13.31609 9674 ft 307 kts 23°
2026-04-14 11:43 38.45490 13.32669 10151 ft 316 kts 24°
2026-04-14 11:43 38.47583 13.33790 10270 ft 336 kts 24°
2026-04-14 11:43 38.49804 13.34981 10397 ft 355 kts 24°
2026-04-14 11:44 38.52139 13.36232 10519 ft 372 kts 24°
2026-04-14 11:44 38.54577 13.37539 10699 ft 386 kts 24°
2026-04-14 11:44 38.57078 13.38879 11138 ft 392 kts 24°
2026-04-14 11:44 38.59604 13.40228 11654 ft 395 kts 24°
2026-04-14 11:45 38.62113 13.41568 12166 ft 397 kts 24°
2026-04-14 11:45 38.64707 13.42956 12682 ft 400 kts 24°
2026-04-14 11:45 38.67283 13.44343 13187 ft 403 kts 24°
2026-04-14 11:45 38.68999 13.45268 13517 ft 405 kts 24°
2026-04-14 11:46 38.71606 13.46676 13987 ft 408 kts 24°
2026-04-14 11:46 38.74240 13.48098 14435 ft 412 kts 24°
2026-04-14 11:46 38.77749 13.49987 15016 ft 415 kts 24°
2026-04-14 11:46 38.80418 13.51422 15472 ft 418 kts 23°
2026-04-14 11:47 38.82272 13.52268 15771 ft 420 kts 17°
2026-04-14 11:47 38.85105 13.53012 16189 ft 423 kts
2026-04-14 11:47 38.88046 13.53132 16599 ft 426 kts 356°
2026-04-14 11:47 38.91002 13.52630 16996 ft 428 kts 349°
2026-04-14 11:48 38.93944 13.51966 17409 ft 431 kts 349°
2026-04-14 11:48 38.96911 13.51305 17817 ft 434 kts 349°
2026-04-14 11:48 38.99898 13.50642 18212 ft 437 kts 349°
2026-04-14 11:48 39.02901 13.49974 18553 ft 439 kts 349°
2026-04-14 11:49 39.05920 13.49303 18933 ft 441 kts 349°
2026-04-14 11:49 39.08957 13.48622 19229 ft 445 kts 349°
2026-04-14 11:49 39.12020 13.47932 19558 ft 448 kts 349°
2026-04-14 11:49 39.15099 13.47239 19895 ft 451 kts 349°
2026-04-14 11:50 39.18201 13.46545 20237 ft 454 kts 349°
2026-04-14 11:50 39.21315 13.45851 20575 ft 456 kts 349°
2026-04-14 11:50 39.24459 13.45149 20911 ft 459 kts 349°
2026-04-14 11:51 39.30778 13.43734 21617 ft 463 kts 349°
2026-04-14 11:51 39.33916 13.43026 21940 ft 465 kts 349°
2026-04-14 11:51 39.37110 13.42305 22262 ft 468 kts 349°
2026-04-14 11:51 39.40327 13.41577 22576 ft 470 kts 349°
2026-04-14 11:52 39.43556 13.40845 22885 ft 473 kts 349°
2026-04-14 11:52 39.46808 13.40110 23191 ft 475 kts 349°
2026-04-14 11:52 39.50075 13.39372 23517 ft 477 kts 349°
2026-04-14 11:52 39.53364 13.38629 23779 ft 480 kts 349°
2026-04-14 11:53 39.56646 13.37890 24042 ft 482 kts 349°
2026-04-14 11:53 39.59957 13.37146 24299 ft 484 kts 349°
2026-04-14 11:53 39.63288 13.36395 24554 ft 487 kts 349°
2026-04-14 11:53 39.66631 13.35636 24804 ft 489 kts 349°
2026-04-14 11:54 39.69989 13.34873 25049 ft 491 kts 349°
2026-04-14 11:54 39.73364 13.34105 25322 ft 492 kts 349°
2026-04-14 11:54 39.76736 13.33335 25590 ft 494 kts 349°
2026-04-14 11:54 39.80131 13.32558 25832 ft 496 kts 349°
2026-04-14 11:55 39.83542 13.31777 26067 ft 498 kts 349°
2026-04-14 11:55 39.86966 13.30991 26293 ft 500 kts 348°
2026-04-14 11:55 39.90401 13.30203 26496 ft 502 kts 348°
2026-04-14 11:55 39.93799 13.29424 26707 ft 504 kts 348°
2026-04-14 11:56 39.97266 13.28629 26896 ft 506 kts 348°
2026-04-14 11:56 40.00744 13.27833 27092 ft 508 kts 348°
2026-04-14 11:56 40.04239 13.27032 27279 ft 509 kts 348°
2026-04-14 11:56 40.07719 13.26235 27540 ft 509 kts 348°
2026-04-14 11:57 40.11205 13.25437 27804 ft 509 kts 348°
2026-04-14 11:57 40.14694 13.24635 28060 ft 509 kts 348°
2026-04-14 11:57 40.18184 13.23829 28324 ft 509 kts 348°
2026-04-14 11:57 40.21675 13.23025 28598 ft 509 kts 348°
2026-04-14 11:58 40.25157 13.22218 28858 ft 509 kts 348°
2026-04-14 11:58 40.28652 13.21403 29106 ft 509 kts 348°
2026-04-14 11:58 40.32131 13.20593 29361 ft 509 kts 348°
2026-04-14 11:58 40.35615 13.19783 29609 ft 509 kts 348°
2026-04-14 11:59 40.39102 13.18973 29874 ft 508 kts 347°
2026-04-14 11:59 40.42572 13.18168 30179 ft 506 kts 347°
2026-04-14 11:59 40.46041 13.17367 30455 ft 504 kts 347°
2026-04-14 11:59 40.49495 13.16567 30708 ft 503 kts 347°
2026-04-14 12:00 40.52941 13.15764 30949 ft 502 kts 347°
2026-04-14 12:00 40.56385 13.14959 31179 ft 502 kts 348°
2026-04-14 12:00 40.59820 13.14160 31429 ft 501 kts 348°
2026-04-14 12:00 40.63195 13.13375 31721 ft 499 kts 348°
2026-04-14 12:01 40.66605 13.12578 31953 ft 498 kts 348°
2026-04-14 12:01 40.70008 13.11778 32192 ft 497 kts 348°
2026-04-14 12:01 40.73415 13.10976 32421 ft 496 kts 348°
2026-04-14 12:01 40.76813 13.10177 32659 ft 495 kts 348°
2026-04-14 12:02 40.80198 13.09381 32897 ft 494 kts 348°
2026-04-14 12:02 40.83574 13.08588 33149 ft 492 kts 348°
2026-04-14 12:02 40.86923 13.07800 33445 ft 489 kts 349°
2026-04-14 12:02 40.90279 13.07011 33713 ft 487 kts 349°
2026-04-14 12:03 40.93615 13.06224 33895 ft 487 kts 349°
2026-04-14 12:03 40.96950 13.05434 33940 ft 487 kts 349°
2026-04-14 12:03 41.03577 13.03867 33922 ft 486 kts 349°
2026-04-14 12:04 41.10223 13.02295 33933 ft 485 kts 349°
2026-04-14 12:04 41.16859 13.00715 33922 ft 484 kts 349°
2026-04-14 12:05 41.23500 12.99134 33935 ft 485 kts 349°
2026-04-14 12:05 41.30100 12.97566 33944 ft 485 kts 349°
2026-04-14 12:06 41.36740 12.95975 33947 ft 485 kts 349°
2026-04-14 12:06 41.43383 12.94380 33949 ft 485 kts 349°
2026-04-14 12:07 41.50027 12.92786 33939 ft 485 kts 349°
2026-04-14 12:07 41.56664 12.91183 33942 ft 485 kts 348°
2026-04-14 12:08 41.63286 12.89480 33943 ft 485 kts 348°
2026-04-14 12:08 41.69851 12.87741 33942 ft 484 kts 348°
2026-04-14 12:09 41.76462 12.86001 33940 ft 484 kts 348°
2026-04-14 12:09 41.83063 12.84287 33939 ft 483 kts 348°
2026-04-14 12:10 41.89665 12.82567 33937 ft 483 kts 348°
2026-04-14 12:10 41.96256 12.80844 33945 ft 482 kts 348°
2026-04-14 12:11 42.02789 12.79128 33945 ft 482 kts 348°
2026-04-14 12:11 42.09369 12.77401 33943 ft 481 kts 348°
2026-04-14 12:12 42.15937 12.75672 33943 ft 481 kts 348°
2026-04-14 12:12 42.22506 12.73941 33933 ft 481 kts 348°
2026-04-14 12:13 42.29068 12.72202 33938 ft 481 kts 348°
2026-04-14 12:13 42.35629 12.70461 33940 ft 480 kts 348°
2026-04-14 12:14 42.42129 12.68738 33943 ft 478 kts 348°
2026-04-14 12:14 42.48652 12.67011 33941 ft 478 kts 348°
2026-04-14 12:15 42.55219 12.65263 33934 ft 477 kts 348°
2026-04-14 12:15 42.61688 12.63523 33930 ft 477 kts 348°
2026-04-14 12:16 42.68206 12.61769 33923 ft 477 kts 348°
2026-04-14 12:16 42.74719 12.60026 33927 ft 477 kts 348°
2026-04-14 12:17 42.81242 12.58281 33926 ft 478 kts 348°
2026-04-14 12:17 42.87761 12.56525 33927 ft 478 kts 348°
2026-04-14 12:18 42.94233 12.54775 33935 ft 478 kts 348°
2026-04-14 12:18 43.00751 12.53009 33939 ft 478 kts 348°
2026-04-14 12:19 43.07278 12.51241 33942 ft 478 kts 348°
2026-04-14 12:19 43.13791 12.49473 33941 ft 478 kts 348°
2026-04-14 12:20 43.20266 12.47699 33944 ft 477 kts 348°
2026-04-14 12:20 43.26773 12.45913 33944 ft 477 kts 348°
2026-04-14 12:21 43.33284 12.44134 33951 ft 477 kts 348°
2026-04-14 12:21 43.39798 12.42354 33961 ft 476 kts 348°
2026-04-14 12:22 43.46292 12.40568 33980 ft 476 kts 347°
2026-04-14 12:22 43.52776 12.38782 33975 ft 475 kts 348°
2026-04-14 12:23 43.59231 12.37006 33979 ft 474 kts 348°
2026-04-14 12:23 43.65714 12.35210 33979 ft 473 kts 348°
2026-04-14 12:24 43.72131 12.33441 33989 ft 473 kts 348°
2026-04-14 12:24 43.78628 12.31638 33988 ft 473 kts 347°
2026-04-14 12:25 43.85075 12.29835 33977 ft 473 kts 347°
2026-04-14 12:25 43.91520 12.28030 33975 ft 472 kts 347°
2026-04-14 12:26 43.97971 12.26230 33993 ft 473 kts 347°
2026-04-14 12:26 44.04421 12.24425 33993 ft 473 kts 347°
2026-04-14 12:27 44.10868 12.22618 33992 ft 473 kts 347°
2026-04-14 12:27 44.17318 12.20803 34001 ft 473 kts 347°
2026-04-14 12:28 44.23763 12.18982 34000 ft 473 kts 347°
2026-04-14 12:28 44.30217 12.17154 34009 ft 473 kts 347°
2026-04-14 12:29 44.36622 12.15335 34011 ft 473 kts 347°
2026-04-14 12:29 44.43067 12.13494 34005 ft 473 kts 347°
2026-04-14 12:30 44.49515 12.11660 34000 ft 472 kts 347°
2026-04-14 12:30 44.55955 12.09832 34006 ft 473 kts 347°
2026-04-14 12:31 44.62402 12.07992 34002 ft 473 kts 347°
2026-04-14 12:31 44.68847 12.06132 34004 ft 473 kts 347°
2026-04-14 12:32 44.75284 12.04277 34002 ft 473 kts 346°
2026-04-14 12:32 44.81747 12.02417 34001 ft 474 kts 347°
2026-04-14 12:33 44.88201 12.00556 34000 ft 474 kts 347°
2026-04-14 12:33 44.94623 11.98703 34002 ft 474 kts 347°
2026-04-14 12:34 45.01075 11.96835 34004 ft 474 kts 346°
2026-04-14 12:34 45.07533 11.94962 34023 ft 474 kts 346°
2026-04-14 12:35 45.13994 11.93080 34023 ft 474 kts 346°
2026-04-14 12:35 45.20444 11.91191 34027 ft 473 kts 346°
2026-04-14 12:36 45.26861 11.89309 34030 ft 474 kts 346°
2026-04-14 12:36 45.33301 11.87420 34026 ft 472 kts 346°
2026-04-14 12:37 45.39733 11.85542 34026 ft 472 kts 346°
2026-04-14 12:37 45.46154 11.83645 34028 ft 471 kts 346°
2026-04-14 12:38 45.55784 11.80788 34026 ft 472 kts 346°
2026-04-14 12:39 45.62204 11.78893 34045 ft 471 kts 347°
2026-04-14 12:39 45.68560 11.77011 34041 ft 468 kts 347°
2026-04-14 12:40 45.74925 11.75112 34015 ft 467 kts 347°
2026-04-14 12:40 45.81286 11.73209 34013 ft 467 kts 347°
2026-04-14 12:41 45.87648 11.71306 34010 ft 467 kts 347°
2026-04-14 12:41 45.94018 11.69404 34018 ft 468 kts 347°
2026-04-14 12:42 46.00392 11.67482 34014 ft 468 kts 347°
2026-04-14 12:42 46.06717 11.65575 34003 ft 467 kts 347°
2026-04-14 12:43 46.13076 11.63648 34007 ft 467 kts 347°
2026-04-14 12:43 46.19434 11.61725 34006 ft 467 kts 347°
2026-04-14 12:44 46.25803 11.59861 34014 ft 467 kts 348°
2026-04-14 12:44 46.32184 11.58030 34002 ft 467 kts 348°
2026-04-14 12:45 46.41691 11.55255 34016 ft 467 kts 347°
2026-04-14 12:45 46.48061 11.53386 34022 ft 467 kts 348°
2026-04-14 12:46 46.54423 11.51515 34020 ft 467 kts 347°
2026-04-14 12:46 46.60789 11.49631 34020 ft 467 kts 347°
2026-04-14 12:47 46.67147 11.47752 34023 ft 466 kts 347°
2026-04-14 12:47 46.73456 11.45829 34028 ft 466 kts 346°
2026-04-14 12:48 46.79783 11.43729 34037 ft 466 kts 346°
2026-04-14 12:48 46.86096 11.41592 34054 ft 466 kts 346°
2026-04-14 12:49 46.92417 11.39490 34068 ft 465 kts 346°
2026-04-14 12:49 46.98774 11.37731 34084 ft 466 kts 355°
2026-04-14 12:50 47.08498 11.37573 34099 ft 466 kts 359°
2026-04-14 12:51 47.14982 11.37502 34155 ft 466 kts 359°
2026-04-14 12:51 47.21483 11.37439 34160 ft 467 kts 359°
2026-04-14 12:52 47.27025 11.37389 34168 ft 466 kts 358°
2026-04-14 12:52 47.33454 11.37318 34169 ft 466 kts 358°
2026-04-14 12:53 47.39923 11.37247 34163 ft 465 kts 358°
2026-04-14 12:53 47.46393 11.37179 34161 ft 464 kts 358°
2026-04-14 12:54 47.52844 11.37131 34158 ft 464 kts 358°
2026-04-14 12:54 47.59296 11.37080 34162 ft 464 kts 358°
2026-04-14 12:55 47.65740 11.37011 34168 ft 462 kts 359°
2026-04-14 12:55 47.72117 11.36940 34175 ft 461 kts 359°
2026-04-14 12:56 47.78567 11.36880 34166 ft 460 kts 359°
2026-04-14 12:56 47.84972 11.36807 34176 ft 459 kts 357°
2026-04-14 12:57 47.91319 11.35950 34184 ft 459 kts 353°
2026-04-14 12:57 47.97737 11.34997 34188 ft 459 kts 353°
2026-04-14 12:58 48.04166 11.34048 34189 ft 459 kts 353°
2026-04-14 12:58 48.10481 11.33117 34196 ft 459 kts 353°
2026-04-14 12:59 48.16913 11.32171 34193 ft 459 kts 353°
2026-04-14 12:59 48.23239 11.31220 34187 ft 459 kts 353°
2026-04-14 13:00 48.29593 11.30261 34179 ft 459 kts 353°
2026-04-14 13:00 48.35943 11.29296 34175 ft 459 kts 353°
2026-04-14 13:01 48.42303 11.28340 34172 ft 459 kts 353°
2026-04-14 13:01 48.48702 11.27381 34181 ft 458 kts 353°
2026-04-14 13:02 48.55084 11.26427 34194 ft 457 kts 353°
2026-04-14 13:02 48.61353 11.25477 34192 ft 456 kts 353°
2026-04-14 13:03 48.67660 11.24511 34195 ft 455 kts 353°
2026-04-14 13:03 48.73965 11.23544 34192 ft 455 kts 353°
2026-04-14 13:04 48.80238 11.22386 34193 ft 453 kts 346°
2026-04-14 13:04 48.86052 11.18873 34190 ft 449 kts 328°
2026-04-14 13:05 48.90914 11.12985 34184 ft 448 kts 316°
2026-04-14 13:05 48.95507 11.06575 34195 ft 448 kts 316°
2026-04-14 13:06 49.00094 11.00156 34192 ft 448 kts 316°
2026-04-14 13:06 49.02371 10.96962 34041 ft 448 kts 316°
2026-04-14 13:06 49.04673 10.93726 33762 ft 447 kts 316°
2026-04-14 13:06 49.06991 10.90458 33476 ft 447 kts 316°
2026-04-14 13:07 49.09273 10.87233 33204 ft 447 kts 316°
2026-04-14 13:07 49.11526 10.84047 32940 ft 448 kts 316°
2026-04-14 13:07 49.13811 10.80811 32644 ft 448 kts 316°
2026-04-14 13:07 49.16101 10.77564 31762 ft 450 kts 316°
2026-04-14 13:08 49.18398 10.74303 30940 ft 451 kts 316°
2026-04-14 13:08 49.20693 10.71011 29941 ft 455 kts 315°
2026-04-14 13:08 49.22981 10.67561 28951 ft 455 kts 313°
2026-04-14 13:08 49.25184 10.64095 27993 ft 456 kts 313°
2026-04-14 13:09 49.27378 10.60557 26918 ft 459 kts 312°
2026-04-14 13:09 49.29560 10.57008 26177 ft 455 kts 312°
2026-04-14 13:09 49.31729 10.53501 25551 ft 450 kts 312°
2026-04-14 13:09 49.33852 10.50104 24886 ft 446 kts 313°
2026-04-14 13:10 49.35957 10.46648 24218 ft 441 kts 308°
2026-04-14 13:10 49.37776 10.42889 23743 ft 439 kts 303°
2026-04-14 13:10 49.39546 10.39034 23262 ft 441 kts 304°
2026-04-14 13:10 49.41335 10.35130 22825 ft 439 kts 304°
2026-04-14 13:11 49.43080 10.31312 22381 ft 436 kts 303°
2026-04-14 13:11 49.44812 10.27510 21924 ft 433 kts 303°
2026-04-14 13:11 49.46519 10.23753 21477 ft 430 kts 303°
2026-04-14 13:11 49.48237 10.19964 21047 ft 427 kts 303°
2026-04-14 13:12 49.49927 10.16230 20622 ft 424 kts 303°
2026-04-14 13:12 49.51564 10.12480 20182 ft 420 kts 298°
2026-04-14 13:12 49.52748 10.08410 19769 ft 417 kts 291°
2026-04-14 13:12 49.53828 10.04262 19354 ft 416 kts 291°
2026-04-14 13:13 49.54894 10.00139 18947 ft 413 kts 291°
2026-04-14 13:13 49.55949 9.96039 18546 ft 411 kts 290°
2026-04-14 13:13 49.56981 9.92027 18103 ft 408 kts 291°
2026-04-14 13:13 49.58024 9.87973 17646 ft 404 kts 290°
2026-04-14 13:14 49.59054 9.83965 17197 ft 400 kts 290°
2026-04-14 13:14 49.60069 9.79983 16753 ft 397 kts 290°
2026-04-14 13:14 49.61072 9.76036 16310 ft 395 kts 290°
2026-04-14 13:14 49.62069 9.72112 15880 ft 392 kts 290°
2026-04-14 13:15 49.63062 9.68206 15447 ft 389 kts 290°
2026-04-14 13:15 49.64045 9.64334 15025 ft 387 kts 290°
2026-04-14 13:15 49.65023 9.60479 14610 ft 384 kts 290°
2026-04-14 13:15 49.65987 9.56685 14200 ft 372 kts 290°
2026-04-14 13:16 49.66895 9.53107 13766 ft 344 kts 290°
2026-04-14 13:16 49.67738 9.49781 13306 ft 321 kts 290°
2026-04-14 13:16 49.68519 9.46677 12864 ft 301 kts 290°
2026-04-14 13:16 49.69263 9.43704 12431 ft 297 kts 289°
2026-04-14 13:17 49.70007 9.40736 11994 ft 296 kts 290°
2026-04-14 13:17 49.70751 9.37780 11557 ft 294 kts 289°
2026-04-14 13:17 49.71473 9.34911 11135 ft 288 kts 289°
2026-04-14 13:17 49.72197 9.32023 10772 ft 287 kts 289°
2026-04-14 13:18 49.72914 9.29156 10412 ft 286 kts 290°
2026-04-14 13:18 49.73630 9.26295 10050 ft 285 kts 289°
2026-04-14 13:18 49.74345 9.23443 9644 ft 284 kts 290°
2026-04-14 13:18 49.75053 9.20607 9255 ft 281 kts 290°
2026-04-14 13:19 49.75749 9.17799 9173 ft 281 kts 290°
2026-04-14 13:19 49.76449 9.14967 9174 ft 282 kts 290°
2026-04-14 13:19 49.77150 9.12135 9175 ft 282 kts 290°
2026-04-14 13:19 49.77850 9.09298 9173 ft 282 kts 290°
2026-04-14 13:20 49.78547 9.06468 9185 ft 282 kts 290°
2026-04-14 13:20 49.79243 9.03651 9180 ft 283 kts 290°
2026-04-14 13:20 49.79952 9.00788 9178 ft 283 kts 290°
2026-04-14 13:20 49.80654 8.97947 9182 ft 283 kts 290°
2026-04-14 13:21 49.81354 8.95105 9181 ft 283 kts 290°
2026-04-14 13:21 49.82061 8.92231 9182 ft 283 kts 290°
2026-04-14 13:21 49.82755 8.89407 9180 ft 283 kts 290°
2026-04-14 13:21 49.83456 8.86554 9181 ft 283 kts 290°
2026-04-14 13:22 49.83912 8.84694 9181 ft 274 kts 290°
2026-04-14 13:22 49.84780 8.81141 9177 ft 253 kts 290°
2026-04-14 13:22 49.85397 8.78618 9182 ft 249 kts 290°
2026-04-14 13:22 49.86008 8.76107 9180 ft 249 kts 290°
2026-04-14 13:23 49.86619 8.73586 9185 ft 249 kts 290°
2026-04-14 13:23 49.87223 8.71093 9181 ft 248 kts 290°
2026-04-14 13:23 49.87833 8.68579 9184 ft 248 kts 290°
2026-04-14 13:23 49.88439 8.66081 9183 ft 247 kts 290°
2026-04-14 13:24 49.89044 8.63583 9185 ft 248 kts 290°
2026-04-14 13:24 49.90252 8.58603 9188 ft 246 kts 290°
2026-04-14 13:24 49.90860 8.56095 9188 ft 246 kts 289°
2026-04-14 13:25 49.91345 8.53572 9184 ft 246 kts 282°
2026-04-14 13:25 49.91630 8.50967 9134 ft 245 kts 276°
2026-04-14 13:26 49.91271 8.43112 8064 ft 246 kts 258°
2026-04-14 13:26 49.90759 8.40579 7722 ft 246 kts 251°
2026-04-14 13:26 49.90156 8.38091 7363 ft 246 kts 251°
2026-04-14 13:26 49.89560 8.35642 7040 ft 246 kts 252°
2026-04-14 13:27 49.88956 8.33158 6696 ft 246 kts 251°
2026-04-14 13:27 49.88549 8.31481 6458 ft 246 kts 251°
2026-04-14 13:27 49.87747 8.28175 6006 ft 245 kts 251°
2026-04-14 13:27 49.87151 8.25734 5694 ft 244 kts 251°
2026-04-14 13:28 49.86552 8.23277 5362 ft 243 kts 251°
2026-04-14 13:28 49.85957 8.20836 5059 ft 242 kts 251°
2026-04-14 13:28 49.85364 8.18401 4743 ft 241 kts 251°
2026-04-14 13:28 49.84778 8.15994 4468 ft 237 kts 251°
2026-04-14 13:29 49.84385 8.14382 4257 ft 236 kts 251°
2026-04-14 13:29 49.83814 8.12044 4039 ft 234 kts 251°
2026-04-14 13:29 49.83236 8.09682 4007 ft 236 kts 251°
2026-04-14 13:29 49.82666 8.07294 4011 ft 236 kts 256°
2026-04-14 13:30 49.82620 8.04822 4013 ft 230 kts 289°
2026-04-14 13:30 49.83428 8.02752 4010 ft 225 kts 322°
2026-04-14 13:30 49.84787 8.01605 4016 ft 224 kts 341°
2026-04-14 13:30 49.86256 8.00817 4012 ft 224 kts 344°
2026-04-14 13:31 49.87776 8.00571 4008 ft 221 kts 12°
2026-04-14 13:31 49.89129 8.01660 4012 ft 223 kts 45°
2026-04-14 13:31 49.90221 8.03711 4009 ft 225 kts 52°
2026-04-14 13:31 49.91042 8.05599 4011 ft 225 kts 60°
2026-04-14 13:32 49.91707 8.07839 4005 ft 226 kts 66°
2026-04-14 13:32 49.92277 8.10134 4006 ft 227 kts 67°
2026-04-14 13:32 49.92824 8.12389 4011 ft 228 kts 67°
2026-04-14 13:32 49.93389 8.14706 4009 ft 228 kts 68°
2026-04-14 13:33 49.93965 8.17068 4005 ft 228 kts 68°
2026-04-14 13:33 49.94552 8.19477 4007 ft 229 kts 68°
2026-04-14 13:33 49.95105 8.21751 4029 ft 219 kts 66°
2026-04-14 13:33 49.95633 8.23922 4010 ft 213 kts 67°
2026-04-14 13:34 49.96679 8.28231 3762 ft 209 kts 66°
2026-04-14 13:34 49.97177 8.30286 3519 ft 198 kts 67°
2026-04-14 13:34 49.97654 8.32257 3237 ft 192 kts 67°
2026-04-14 13:35 49.98115 8.34160 2975 ft 185 kts 66°
2026-04-14 13:35 49.98568 8.36034 2723 ft 180 kts 67°
2026-04-14 13:35 49.99005 8.37845 2478 ft 173 kts 67°
2026-04-14 13:35 49.99416 8.39547 2258 ft 163 kts 67°
2026-04-14 13:36 49.99789 8.41094 2043 ft 151 kts 66°
2026-04-14 13:36 50.00150 8.42591 1831 ft 146 kts 67°
2026-04-14 13:36 50.00503 8.44054 1645 ft 143 kts 65°
2026-04-14 13:36 50.00851 8.45498 1439 ft 143 kts 66°
2026-04-14 13:37 50.01199 8.46946 1255 ft 143 kts 67°
2026-04-14 13:37 50.01557 8.48434 1047 ft 144 kts 66°
2026-04-14 13:37 50.01927 8.49976 842 ft 144 kts 67°
2026-04-14 13:37 50.02055 8.50520 774 ft 144 kts 67°
2026-04-14 13:38 50.02402 8.51958 604 ft 143 kts 64°
2026-04-14 13:38 50.02899 8.54014 376 ft 142 kts 66°
2026-04-14 13:38 50.03160 8.55119 358 ft 110 kts 69°
2026-04-14 13:38 50.03370 8.55989 359 ft 59 kts 69°
2026-04-14 13:39 50.03539 8.56377 367 ft 38 kts 39°
2026-04-14 13:39 50.03678 8.56553 362 ft 24 kts 39°
2026-04-14 13:39 50.03736 8.56626 361 ft 0 kts 39°
2026-04-14 13:40 50.03737 8.56627 365 ft 1 kts 36°
2026-04-14 13:40 50.03743 8.56630 365 ft 2 kts 22°
2026-04-14 13:40 50.03774 8.56644 364 ft 8 kts 14°
2026-04-14 13:41 50.03834 8.56663 361 ft 10 kts 12°
2026-04-14 13:41 50.03908 8.56687 365 ft 12 kts 12°
2026-04-14 13:41 50.03999 8.56716 360 ft 16 kts 12°
2026-04-14 13:41 50.04114 8.56753 362 ft 17 kts 12°
2026-04-14 13:42 50.04234 8.56791 365 ft 18 kts 11°
2026-04-14 13:42 50.04360 8.56830 364 ft 19 kts 11°
2026-04-14 13:42 50.04497 8.56872 362 ft 20 kts 13°
2026-04-14 13:42 50.04599 8.56908 362 ft 10 kts 13°
2026-04-14 13:43 50.04631 8.56892 364 ft 5 kts 301°
2026-04-14 13:43 50.04648 8.56831 364 ft 6 kts 295°
2026-04-14 13:43 50.04653 8.56815 366 ft 0 kts 295°